iso_date,epoch_date,Year,Hour,Min,DOY,POS_DOY,Lat,Lon,BP,Ts,Ta,has_bp,has_ts,has_ta,BuoyID,Buoy_Type,Buoy_Owner,Logistics,Hemisphere
2016-07-01T11:19:40Z,1467371981,2016,11,20,183.472,183.472,70.0038,-60.3632,1015.4,-1.77,-999.0,yes,yes,no,300234063265880,unknown,unknown,unknown,North
2016-07-01T12:00:00Z,1467374400,2016,12,0,183.5,183.5,70.0004,-60.3592,1015.5,-0.62,-999.0,yes,yes,no,300234063265880,unknown,unknown,unknown,North
2016-07-01T13:00:28Z,1467378029,2016,13,0,183.542,183.542,70.001,-60.3548,1015.3,1.77,-999.0,yes,yes,no,300234063265880,unknown,unknown,unknown,North
2016-07-01T13:59:31Z,1467381571,2016,14,0,183.583,183.583,69.9964,-60.3704,1016.3,-0.48,-999.0,yes,yes,no,300234063265880,unknown,unknown,unknown,North
2016-07-01T15:00:00Z,1467385200,2016,15,0,183.625,183.625,69.989,-60.3712,1016.0,-0.45,-999.0,yes,yes,no,300234063265880,unknown,unknown,unknown,North
2016-07-01T16:00:28Z,1467388829,2016,16,0,183.667,183.667,69.9836,-60.3788,1015.8,-0.58,-999.0,yes,yes,no,300234063265880,unknown,unknown,unknown,North
2016-07-01T16:59:31Z,1467392371,2016,17,0,183.708,183.708,69.9814,-60.3944,1015.6,-0.59,-999.0,yes,yes,no,300234063265880,unknown,unknown,unknown,North
2016-07-01T18:00:00Z,1467396000,2016,18,0,183.75,183.75,69.9794,-60.412,1015.5,-0.4,-999.0,yes,yes,no,300234063265880,unknown,unknown,unknown,North
2016-07-01T19:00:28Z,1467399629,2016,19,0,183.792,183.792,69.9806,-60.4278,1015.4,-0.39,-999.0,yes,yes,no,300234063265880,unknown,unknown,unknown,North
2016-07-01T19:59:31Z,1467403171,2016,20,0,183.833,183.833,69.9858,-60.4392,1015.0,-0.36,-999.0,yes,yes,no,300234063265880,unknown,unknown,unknown,North
2016-07-01T21:00:00Z,1467406800,2016,21,0,183.875,183.875,69.9936,-60.4432,1015.0,-0.3,-999.0,yes,yes,no,300234063265880,unknown,unknown,unknown,North
2016-07-01T22:00:28Z,1467410429,2016,22,0,183.917,183.917,70.0026,-60.4396,1015.0,-0.32,-999.0,yes,yes,no,300234063265880,unknown,unknown,unknown,North
2016-07-01T22:59:31Z,1467413971,2016,23,0,183.958,183.958,70.01,-60.4284,1014.9,-0.32,-999.0,yes,yes,no,300234063265880,unknown,unknown,unknown,North
2016-07-02T00:00:00Z,1467417600,2016,0,0,184.0,184.0,70.0144,-60.4158,1014.9,-0.32,-999.0,yes,yes,no,300234063265880,unknown,unknown,unknown,North
2016-07-02T01:00:28Z,1467421229,2016,1,0,184.042,184.042,70.0162,-60.4016,1015.0,-0.32,-999.0,yes,yes,no,300234063265880,unknown,unknown,unknown,North
2016-07-02T01:59:31Z,1467424771,2016,2,0,184.083,184.083,70.0138,-60.3876,1015.1,-0.31,-999.0,yes,yes,no,300234063265880,unknown,unknown,unknown,North
2016-07-02T03:00:00Z,1467428400,2016,3,0,184.125,184.125,70.0084,-60.3784,1015.0,-0.3,-999.0,yes,yes,no,300234063265880,unknown,unknown,unknown,North
2016-07-02T04:00:28Z,1467432029,2016,4,0,184.167,184.167,70.0012,-60.3758,1014.9,-0.29,-999.0,yes,yes,no,300234063265880,unknown,unknown,unknown,North
2016-07-02T04:59:31Z,1467435571,2016,5,0,184.208,184.208,69.994,-60.3802,1014.7,-0.28,-999.0,yes,yes,no,300234063265880,unknown,unknown,unknown,North
2016-07-02T06:00:00Z,1467439200,2016,6,0,184.25,184.25,69.9888,-60.384,1014.7,-0.31,-999.0,yes,yes,no,300234063265880,unknown,unknown,unknown,North
2016-07-02T07:00:28Z,1467442829,2016,7,0,184.292,184.292,69.9852,-60.3896,1015.0,-0.3,-999.0,yes,yes,no,300234063265880,unknown,unknown,unknown,North
2016-07-02T07:59:31Z,1467446371,2016,8,0,184.333,184.333,69.9842,-60.3938,1015.0,-0.24,-999.0,yes,yes,no,300234063265880,unknown,unknown,unknown,North
2016-07-02T09:00:00Z,1467450000,2016,9,0,184.375,184.375,69.9844,-60.3964,1015.2,-0.24,-999.0,yes,yes,no,300234063265880,unknown,unknown,unknown,North
2016-07-02T10:00:28Z,1467453629,2016,10,0,184.417,184.417,69.9852,-60.3978,1015.4,-0.1,-999.0,yes,yes,no,300234063265880,unknown,unknown,unknown,North
2016-07-02T10:59:31Z,1467457171,2016,11,0,184.458,184.458,69.9856,-60.3944,1015.4,-0.53,-999.0,yes,yes,no,300234063265880,unknown,unknown,unknown,North
2016-07-02T12:00:00Z,1467460800,2016,12,0,184.5,184.5,69.9868,-60.3894,1015.8,-0.31,-999.0,yes,yes,no,300234063265880,unknown,unknown,unknown,North
2016-07-02T13:00:28Z,1467464429,2016,13,0,184.542,184.542,69.9848,-60.3886,1016.2,0.0,-999.0,yes,yes,no,300234063265880,unknown,unknown,unknown,North
2016-07-02T13:59:31Z,1467467971,2016,14,0,184.583,184.583,69.9802,-60.3892,1016.3,-0.35,-999.0,yes,yes,no,300234063265880,unknown,unknown,unknown,North
2016-07-02T15:00:00Z,1467471600,2016,15,0,184.625,184.625,69.9722,-60.3926,1016.6,0.15,-999.0,yes,yes,no,300234063265880,unknown,unknown,unknown,North
2016-07-02T16:00:28Z,1467475229,2016,16,0,184.667,184.667,69.9626,-60.4072,1016.8,0.19,-999.0,yes,yes,no,300234063265880,unknown,unknown,unknown,North
2016-07-02T16:59:31Z,1467478771,2016,17,0,184.708,184.708,69.956,-60.4238,1017.0,0.38,-999.0,yes,yes,no,300234063265880,unknown,unknown,unknown,North
2016-07-02T18:00:00Z,1467482400,2016,18,0,184.75,184.75,69.9522,-60.4406,1017.3,0.33,-999.0,yes,yes,no,300234063265880,unknown,unknown,unknown,North
2016-07-02T19:00:28Z,1467486029,2016,19,0,184.792,184.792,69.951,-60.4574,1017.6,0.4,-999.0,yes,yes,no,300234063265880,unknown,unknown,unknown,North
2016-07-02T19:59:31Z,1467489571,2016,20,0,184.833,184.833,69.9534,-60.4678,1017.9,0.37,-999.0,yes,yes,no,300234063265880,unknown,unknown,unknown,North
2016-07-02T21:00:00Z,1467493200,2016,21,0,184.875,184.875,69.958,-60.4686,1018.1,0.58,-999.0,yes,yes,no,300234063265880,unknown,unknown,unknown,North
2016-07-02T22:00:28Z,1467496829,2016,22,0,184.917,184.917,69.9652,-60.4638,1018.5,0.35,-999.0,yes,yes,no,300234063265880,unknown,unknown,unknown,North
2016-07-02T22:59:31Z,1467500371,2016,23,0,184.958,184.958,69.9734,-60.446,1018.8,-0.51,-999.0,yes,yes,no,300234063265880,unknown,unknown,unknown,North
2016-07-03T00:00:00Z,1467504000,2016,0,0,185.0,185.0,69.9776,-60.428,1019.2,0.12,-999.0,yes,yes,no,300234063265880,unknown,unknown,unknown,North
2016-07-03T01:00:28Z,1467507629,2016,1,0,185.042,185.042,69.979,-60.4128,1019.5,-0.42,-999.0,yes,yes,no,300234063265880,unknown,unknown,unknown,North
2016-07-03T01:59:31Z,1467511171,2016,2,0,185.083,185.083,69.9766,-60.3982,1019.7,-0.36,-999.0,yes,yes,no,300234063265880,unknown,unknown,unknown,North
2016-07-03T03:00:00Z,1467514800,2016,3,0,185.125,185.125,69.973,-60.3932,1019.9,-0.08,-999.0,yes,yes,no,300234063265880,unknown,unknown,unknown,North
2016-07-03T04:00:28Z,1467518429,2016,4,0,185.167,185.167,69.967,-60.4002,1020.1,-0.68,-999.0,yes,yes,no,300234063265880,unknown,unknown,unknown,North
2016-07-03T04:59:31Z,1467521971,2016,5,0,185.208,185.208,69.9614,-60.411,1020.5,-0.05,-999.0,yes,yes,no,300234063265880,unknown,unknown,unknown,North
2016-07-03T06:00:00Z,1467525600,2016,6,0,185.25,185.25,69.9562,-60.4264,1020.7,-0.18,-999.0,yes,yes,no,300234063265880,unknown,unknown,unknown,North
2016-07-03T07:00:28Z,1467529229,2016,7,0,185.292,185.292,69.953,-60.4438,1021.1,-0.28,-999.0,yes,yes,no,300234063265880,unknown,unknown,unknown,North
2016-07-03T07:59:31Z,1467532771,2016,8,0,185.333,185.333,69.9516,-60.4566,1021.1,-0.28,-999.0,yes,yes,no,300234063265880,unknown,unknown,unknown,North
2016-07-03T09:00:00Z,1467536400,2016,9,0,185.375,185.375,69.952,-60.4644,1021.2,-0.65,-999.0,yes,yes,no,300234063265880,unknown,unknown,unknown,North
2016-07-03T10:00:28Z,1467540029,2016,10,0,185.417,185.417,69.9534,-60.465,1021.5,-0.07,-999.0,yes,yes,no,300234063265880,unknown,unknown,unknown,North
2016-07-03T10:59:31Z,1467543571,2016,11,0,185.458,185.458,69.957,-60.4558,1021.6,-0.55,-999.0,yes,yes,no,300234063265880,unknown,unknown,unknown,North
2016-07-03T12:00:00Z,1467547200,2016,12,0,185.5,185.5,69.9566,-60.447,1021.9,-0.46,-999.0,yes,yes,no,300234063265880,unknown,unknown,unknown,North
2016-07-03T13:00:28Z,1467550829,2016,13,0,185.542,185.542,69.9538,-60.4436,1022.2,-0.16,-999.0,yes,yes,no,300234063265880,unknown,unknown,unknown,North
2016-07-03T13:59:31Z,1467554371,2016,14,0,185.583,185.583,69.9436,-60.4494,1022.3,-0.01,-999.0,yes,yes,no,300234063265880,unknown,unknown,unknown,North
2016-07-03T15:00:00Z,1467558000,2016,15,0,185.625,185.625,69.9334,-60.4572,1022.5,-0.22,-999.0,yes,yes,no,300234063265880,unknown,unknown,unknown,North
2016-07-03T16:00:28Z,1467561629,2016,16,0,185.667,185.667,69.9236,-60.4664,1022.4,0.34,-999.0,yes,yes,no,300234063265880,unknown,unknown,unknown,North
2016-07-03T16:59:31Z,1467565171,2016,17,0,185.708,185.708,69.9154,-60.4806,1022.3,0.92,-999.0,yes,yes,no,300234063265880,unknown,unknown,unknown,North
2016-07-03T18:00:00Z,1467568800,2016,18,0,185.75,185.75,69.908,-60.4898,1022.7,0.91,-999.0,yes,yes,no,300234063265880,unknown,unknown,unknown,North
2016-07-03T19:00:28Z,1467572429,2016,19,0,185.792,185.792,69.9044,-60.4998,1022.9,0.02,-999.0,yes,yes,no,300234063265880,unknown,unknown,unknown,North
2016-07-03T19:59:31Z,1467575971,2016,20,0,185.833,185.833,69.9058,-60.506,1023.0,0.24,-999.0,yes,yes,no,300234063265880,unknown,unknown,unknown,North
2016-07-03T21:00:00Z,1467579600,2016,21,0,185.875,185.875,69.9096,-60.5032,1023.0,0.02,-999.0,yes,yes,no,300234063265880,unknown,unknown,unknown,North
2016-07-03T22:00:28Z,1467583229,2016,22,0,185.917,185.917,69.915,-60.5012,1022.9,0.78,-999.0,yes,yes,no,300234063265880,unknown,unknown,unknown,North
2016-07-03T22:59:31Z,1467586771,2016,23,0,185.958,185.958,69.922,-60.4918,1022.9,0.65,-999.0,yes,yes,no,300234063265880,unknown,unknown,unknown,North
2016-07-04T00:00:00Z,1467590400,2016,0,0,186.0,186.0,69.9294,-60.477,1022.9,0.69,-999.0,yes,yes,no,300234063265880,unknown,unknown,unknown,North
2016-07-04T01:00:28Z,1467594029,2016,1,0,186.042,186.042,69.9366,-60.4592,1023.1,0.51,-999.0,yes,yes,no,300234063265880,unknown,unknown,unknown,North
2016-07-04T01:59:31Z,1467597571,2016,2,0,186.083,186.083,69.9412,-60.44,1023.1,0.44,-999.0,yes,yes,no,300234063265880,unknown,unknown,unknown,North
2016-07-04T03:00:00Z,1467601200,2016,3,0,186.125,186.125,69.9408,-60.4234,1023.0,0.41,-999.0,yes,yes,no,300234063265880,unknown,unknown,unknown,North
2016-07-04T04:00:28Z,1467604829,2016,4,0,186.167,186.167,69.9324,-60.428,1022.8,0.17,-999.0,yes,yes,no,300234063265880,unknown,unknown,unknown,North
2016-07-04T04:59:31Z,1467608371,2016,5,0,186.208,186.208,69.9226,-60.4346,1022.8,0.39,-999.0,yes,yes,no,300234063265880,unknown,unknown,unknown,North
2016-07-04T06:00:00Z,1467612000,2016,6,0,186.25,186.25,69.9096,-60.4354,1022.6,0.42,-999.0,yes,yes,no,300234063265880,unknown,unknown,unknown,North
2016-07-04T07:00:28Z,1467615629,2016,7,0,186.292,186.292,69.8964,-60.4432,1022.7,-0.03,-999.0,yes,yes,no,300234063265880,unknown,unknown,unknown,North
2016-07-04T07:59:31Z,1467619171,2016,8,0,186.333,186.333,69.8832,-60.4504,1022.9,0.0,-999.0,yes,yes,no,300234063265880,unknown,unknown,unknown,North
2016-07-04T09:00:00Z,1467622800,2016,9,0,186.375,186.375,69.8714,-60.4626,1022.7,-0.08,-999.0,yes,yes,no,300234063265880,unknown,unknown,unknown,North
2016-07-04T10:00:28Z,1467626429,2016,10,0,186.417,186.417,69.8636,-60.4764,1022.6,0.07,-999.0,yes,yes,no,300234063265880,unknown,unknown,unknown,North
2016-07-04T10:59:31Z,1467629971,2016,11,0,186.458,186.458,69.8556,-60.4888,1022.5,-0.13,-999.0,yes,yes,no,300234063265880,unknown,unknown,unknown,North
2016-07-04T12:00:00Z,1467633600,2016,12,0,186.5,186.5,69.8464,-60.5106,1022.4,-0.48,-999.0,yes,yes,no,300234063265880,unknown,unknown,unknown,North
2016-07-04T13:00:28Z,1467637229,2016,13,0,186.542,186.542,69.8398,-60.5204,1022.5,-0.55,-999.0,yes,yes,no,300234063265880,unknown,unknown,unknown,North
2016-07-04T13:59:31Z,1467640771,2016,14,0,186.583,186.583,69.8336,-60.5294,1022.2,-0.75,-999.0,yes,yes,no,300234063265880,unknown,unknown,unknown,North
2016-07-04T15:00:00Z,1467644400,2016,15,0,186.625,186.625,69.8284,-60.533,1021.8,-0.07,-999.0,yes,yes,no,300234063265880,unknown,unknown,unknown,North
2016-07-04T16:00:28Z,1467648029,2016,16,0,186.667,186.667,69.8202,-60.5334,1021.5,-0.18,-999.0,yes,yes,no,300234063265880,unknown,unknown,unknown,North
2016-07-04T16:59:31Z,1467651571,2016,17,0,186.708,186.708,69.8092,-60.5368,1021.3,-0.11,-999.0,yes,yes,no,300234063265880,unknown,unknown,unknown,North
2016-07-04T18:00:00Z,1467655200,2016,18,0,186.75,186.75,69.7968,-60.545,1021.4,-0.1,-999.0,yes,yes,no,300234063265880,unknown,unknown,unknown,North
2016-07-04T19:00:28Z,1467658829,2016,19,0,186.792,186.792,69.78,-60.5524,1021.5,-0.27,-999.0,yes,yes,no,300234063265880,unknown,unknown,unknown,North
2016-07-04T19:59:31Z,1467662371,2016,20,0,186.833,186.833,69.7646,-60.5618,1021.3,-0.14,-999.0,yes,yes,no,300234063265880,unknown,unknown,unknown,North
2016-07-04T21:00:00Z,1467666000,2016,21,0,186.875,186.875,69.7558,-60.5718,1021.3,-0.26,-999.0,yes,yes,no,300234063265880,unknown,unknown,unknown,North
2016-07-04T22:00:28Z,1467669629,2016,22,0,186.917,186.917,69.7556,-60.5742,1021.1,-0.11,-999.0,yes,yes,no,300234063265880,unknown,unknown,unknown,North
2016-07-04T22:59:31Z,1467673171,2016,23,0,186.958,186.958,69.7588,-60.5754,1020.9,-0.17,-999.0,yes,yes,no,300234063265880,unknown,unknown,unknown,North
2016-07-05T00:00:00Z,1467676800,2016,0,0,187.0,187.0,69.7654,-60.5702,1020.7,-0.03,-999.0,yes,yes,no,300234063265880,unknown,unknown,unknown,North
2016-07-05T01:00:28Z,1467680429,2016,1,0,187.042,187.042,69.775,-60.5608,1020.7,0.12,-999.0,yes,yes,no,300234063265880,unknown,unknown,unknown,North
2016-07-05T01:59:31Z,1467683971,2016,2,0,187.083,187.083,69.7814,-60.5442,1020.2,0.12,-999.0,yes,yes,no,300234063265880,unknown,unknown,unknown,North
2016-07-05T03:00:00Z,1467687600,2016,3,0,187.125,187.125,69.7826,-60.5264,1020.2,0.11,-999.0,yes,yes,no,300234063265880,unknown,unknown,unknown,North
2016-07-05T04:00:28Z,1467691229,2016,4,0,187.167,187.167,69.78,-60.5114,1019.7,0.09,-999.0,yes,yes,no,300234063265880,unknown,unknown,unknown,North
2016-07-05T04:59:31Z,1467694771,2016,5,0,187.208,187.208,69.7724,-60.5014,1019.2,0.05,-999.0,yes,yes,no,300234063265880,unknown,unknown,unknown,North
2016-07-05T06:00:00Z,1467698400,2016,6,0,187.25,187.25,69.7616,-60.4992,1019.1,0.06,-999.0,yes,yes,no,300234063265880,unknown,unknown,unknown,North
2016-07-05T07:00:28Z,1467702029,2016,7,0,187.292,187.292,69.7496,-60.5044,1018.8,0.13,-999.0,yes,yes,no,300234063265880,unknown,unknown,unknown,North
2016-07-05T07:59:31Z,1467705571,2016,8,0,187.333,187.333,69.7384,-60.515,1018.7,0.14,-999.0,yes,yes,no,300234063265880,unknown,unknown,unknown,North
2016-07-05T09:00:00Z,1467709200,2016,9,0,187.375,187.375,69.7304,-60.528,1018.5,0.14,-999.0,yes,yes,no,300234063265880,unknown,unknown,unknown,North
2016-07-05T10:00:28Z,1467712829,2016,10,0,187.417,187.417,69.7258,-60.542,1018.3,0.16,-999.0,yes,yes,no,300234063265880,unknown,unknown,unknown,North
2016-07-05T10:59:31Z,1467716371,2016,11,0,187.458,187.458,69.7258,-60.5558,1018.0,0.18,-999.0,yes,yes,no,300234063265880,unknown,unknown,unknown,North
2016-07-05T12:00:00Z,1467720000,2016,12,0,187.5,187.5,69.7324,-60.5688,1017.7,0.25,-999.0,yes,yes,no,300234063265880,unknown,unknown,unknown,North
2016-07-05T13:00:28Z,1467723629,2016,13,0,187.542,187.542,69.7424,-60.5708,1017.7,0.31,-999.0,yes,yes,no,300234063265880,unknown,unknown,unknown,North
2016-07-05T13:59:31Z,1467727171,2016,14,0,187.583,187.583,69.7502,-60.5586,1017.5,0.37,-999.0,yes,yes,no,300234063265880,unknown,unknown,unknown,North
2016-07-05T15:00:00Z,1467730800,2016,15,0,187.625,187.625,69.7536,-60.5382,1017.1,0.45,-999.0,yes,yes,no,300234063265880,unknown,unknown,unknown,North
2016-07-05T16:00:28Z,1467734429,2016,16,0,187.667,187.667,69.7514,-60.5126,1016.8,0.47,-999.0,yes,yes,no,300234063265880,unknown,unknown,unknown,North
2016-07-05T16:59:31Z,1467737971,2016,17,0,187.708,187.708,69.7442,-60.4898,1016.7,0.52,-999.0,yes,yes,no,300234063265880,unknown,unknown,unknown,North
2016-07-05T18:00:00Z,1467741600,2016,18,0,187.75,187.75,69.7332,-60.4756,1016.5,0.56,-999.0,yes,yes,no,300234063265880,unknown,unknown,unknown,North
2016-07-05T19:00:28Z,1467745229,2016,19,0,187.792,187.792,69.7206,-60.4738,1016.4,0.56,-999.0,yes,yes,no,300234063265880,unknown,unknown,unknown,North
2016-07-05T19:59:31Z,1467748771,2016,20,0,187.833,187.833,69.71,-60.481,1016.2,0.57,-999.0,yes,yes,no,300234063265880,unknown,unknown,unknown,North
2016-07-05T21:00:00Z,1467752400,2016,21,0,187.875,187.875,69.7034,-60.4966,1016.0,0.52,-999.0,yes,yes,no,300234063265880,unknown,unknown,unknown,North
2016-07-05T22:00:28Z,1467756029,2016,22,0,187.917,187.917,69.7028,-60.5144,1015.9,0.56,-999.0,yes,yes,no,300234063265880,unknown,unknown,unknown,North
2016-07-05T22:59:31Z,1467759571,2016,23,0,187.958,187.958,69.7076,-60.5278,1015.4,0.57,-999.0,yes,yes,no,300234063265880,unknown,unknown,unknown,North
2016-07-06T00:00:00Z,1467763200,2016,0,0,188.0,188.0,69.718,-60.5354,1015.2,0.55,-999.0,yes,yes,no,300234063265880,unknown,unknown,unknown,North
2016-07-06T01:00:28Z,1467766829,2016,1,0,188.042,188.042,69.7306,-60.5312,1015.3,0.53,-999.0,yes,yes,no,300234063265880,unknown,unknown,unknown,North
2016-07-06T01:59:31Z,1467770371,2016,2,0,188.083,188.083,69.743,-60.5172,1015.0,0.55,-999.0,yes,yes,no,300234063265880,unknown,unknown,unknown,North
2016-07-06T03:00:00Z,1467774000,2016,3,0,188.125,188.125,69.7522,-60.4952,1014.5,0.54,-999.0,yes,yes,no,300234063265880,unknown,unknown,unknown,North
2016-07-06T04:00:28Z,1467777629,2016,4,0,188.167,188.167,69.7546,-60.4714,1014.0,0.53,-999.0,yes,yes,no,300234063265880,unknown,unknown,unknown,North
2016-07-06T04:59:31Z,1467781171,2016,5,0,188.208,188.208,69.75,-60.4536,1013.5,0.51,-999.0,yes,yes,no,300234063265880,unknown,unknown,unknown,North
2016-07-06T06:00:00Z,1467784800,2016,6,0,188.25,188.25,69.7396,-60.4462,1013.5,0.48,-999.0,yes,yes,no,300234063265880,unknown,unknown,unknown,North
2016-07-06T07:00:28Z,1467788429,2016,7,0,188.292,188.292,69.7266,-60.4522,1013.7,0.49,-999.0,yes,yes,no,300234063265880,unknown,unknown,unknown,North
2016-07-06T07:59:31Z,1467791971,2016,8,0,188.333,188.333,69.7126,-60.4678,1013.4,0.48,-999.0,yes,yes,no,300234063265880,unknown,unknown,unknown,North
2016-07-06T09:00:00Z,1467795600,2016,9,0,188.375,188.375,69.702,-60.4954,1013.4,0.5,-999.0,yes,yes,no,300234063265880,unknown,unknown,unknown,North
2016-07-06T10:00:28Z,1467799229,2016,10,0,188.417,188.417,69.6972,-60.529,1013.3,0.51,-999.0,yes,yes,no,300234063265880,unknown,unknown,unknown,North
2016-07-06T10:59:31Z,1467802771,2016,11,0,188.458,188.458,69.6964,-60.5564,1013.0,0.5,-999.0,yes,yes,no,300234063265880,unknown,unknown,unknown,North
2016-07-06T12:00:00Z,1467806400,2016,12,0,188.5,188.5,69.701,-60.5766,1013.0,0.52,-999.0,yes,yes,no,300234063265880,unknown,unknown,unknown,North
2016-07-06T13:00:28Z,1467810029,2016,13,0,188.542,188.542,69.709,-60.5832,1013.0,0.56,-999.0,yes,yes,no,300234063265880,unknown,unknown,unknown,North
2016-07-06T13:59:31Z,1467813571,2016,14,0,188.583,188.583,69.7176,-60.5774,1013.3,0.59,-999.0,yes,yes,no,300234063265880,unknown,unknown,unknown,North
2016-07-06T15:00:00Z,1467817200,2016,15,0,188.625,188.625,69.7244,-60.5608,1013.1,0.62,-999.0,yes,yes,no,300234063265880,unknown,unknown,unknown,North
2016-07-06T16:00:28Z,1467820829,2016,16,0,188.667,188.667,69.7262,-60.5364,1012.9,0.67,-999.0,yes,yes,no,300234063265880,unknown,unknown,unknown,North
2016-07-06T16:59:31Z,1467824371,2016,17,0,188.708,188.708,69.7222,-60.5126,1013.1,0.74,-999.0,yes,yes,no,300234063265880,unknown,unknown,unknown,North
2016-07-06T18:00:00Z,1467828000,2016,18,0,188.75,188.75,69.714,-60.4946,1013.0,0.8,-999.0,yes,yes,no,300234063265880,unknown,unknown,unknown,North
2016-07-06T19:00:28Z,1467831629,2016,19,0,188.792,188.792,69.7014,-60.4858,1013.1,0.84,-999.0,yes,yes,no,300234063265880,unknown,unknown,unknown,North
2016-07-06T19:59:31Z,1467835171,2016,20,0,188.833,188.833,69.6876,-60.492,1013.3,0.88,-999.0,yes,yes,no,300234063265880,unknown,unknown,unknown,North
2016-07-06T21:00:00Z,1467838800,2016,21,0,188.875,188.875,69.6764,-60.5128,1013.3,0.89,-999.0,yes,yes,no,300234063265880,unknown,unknown,unknown,North
2016-07-06T22:00:28Z,1467842429,2016,22,0,188.917,188.917,69.6708,-60.54,1013.4,0.86,-999.0,yes,yes,no,300234063265880,unknown,unknown,unknown,North
2016-07-06T22:59:31Z,1467845971,2016,23,0,188.958,188.958,69.6718,-60.5678,1013.4,0.82,-999.0,yes,yes,no,300234063265880,unknown,unknown,unknown,North
2016-07-07T00:00:00Z,1467849600,2016,0,0,189.0,189.0,69.6794,-60.5888,1013.6,0.81,-999.0,yes,yes,no,300234063265880,unknown,unknown,unknown,North
2016-07-07T01:00:28Z,1467853229,2016,1,0,189.042,189.042,69.6914,-60.5964,1014.1,0.77,-999.0,yes,yes,no,300234063265880,unknown,unknown,unknown,North
2016-07-07T01:59:31Z,1467856771,2016,2,0,189.083,189.083,69.7036,-60.5932,1014.0,0.78,-999.0,yes,yes,no,300234063265880,unknown,unknown,unknown,North
2016-07-07T03:00:00Z,1467860400,2016,3,0,189.125,189.125,69.7136,-60.5806,1013.9,0.78,-999.0,yes,yes,no,300234063265880,unknown,unknown,unknown,North
2016-07-07T04:00:28Z,1467864029,2016,4,0,189.167,189.167,69.7188,-60.5636,1013.9,0.8,-999.0,yes,yes,no,300234063265880,unknown,unknown,unknown,North
2016-07-07T04:59:31Z,1467867571,2016,5,0,189.208,189.208,69.7176,-60.5492,1013.8,0.86,-999.0,yes,yes,no,300234063265880,unknown,unknown,unknown,North
2016-07-07T06:00:00Z,1467871200,2016,6,0,189.25,189.25,69.711,-60.5434,1014.1,0.9,-999.0,yes,yes,no,300234063265880,unknown,unknown,unknown,North
2016-07-07T07:00:28Z,1467874829,2016,7,0,189.292,189.292,69.7,-60.5486,1014.1,0.93,-999.0,yes,yes,no,300234063265880,unknown,unknown,unknown,North
2016-07-07T07:59:31Z,1467878371,2016,8,0,189.333,189.333,69.6868,-60.5634,1014.6,0.94,-999.0,yes,yes,no,300234063265880,unknown,unknown,unknown,North
2016-07-07T09:00:00Z,1467882000,2016,9,0,189.375,189.375,69.6742,-60.586,1014.8,0.95,-999.0,yes,yes,no,300234063265880,unknown,unknown,unknown,North
2016-07-07T10:00:28Z,1467885629,2016,10,0,189.417,189.417,69.6658,-60.6166,1014.9,0.97,-999.0,yes,yes,no,300234063265880,unknown,unknown,unknown,North
2016-07-07T10:59:31Z,1467889171,2016,11,0,189.458,189.458,69.6612,-60.6464,1014.9,0.99,-999.0,yes,yes,no,300234063265880,unknown,unknown,unknown,North
2016-07-07T12:00:00Z,1467892800,2016,12,0,189.5,189.5,69.6614,-60.6728,1014.8,1.01,-999.0,yes,yes,no,300234063265880,unknown,unknown,unknown,North
2016-07-07T13:00:28Z,1467896429,2016,13,0,189.542,189.542,69.666,-60.693,1015.0,1.04,-999.0,yes,yes,no,300234063265880,unknown,unknown,unknown,North
2016-07-07T13:59:31Z,1467899971,2016,14,0,189.583,189.583,69.6718,-60.7026,1015.2,1.11,-999.0,yes,yes,no,300234063265880,unknown,unknown,unknown,North
2016-07-07T15:00:00Z,1467903600,2016,15,0,189.625,189.625,69.6786,-60.7,1015.1,1.19,-999.0,yes,yes,no,300234063265880,unknown,unknown,unknown,North
2016-07-07T16:00:28Z,1467907229,2016,16,0,189.667,189.667,69.6832,-60.6898,1015.3,1.27,-999.0,yes,yes,no,300234063265880,unknown,unknown,unknown,North
2016-07-07T16:59:31Z,1467910771,2016,17,0,189.708,189.708,69.6822,-60.6764,1015.2,1.4,-999.0,yes,yes,no,300234063265880,unknown,unknown,unknown,North
2016-07-07T18:00:00Z,1467914400,2016,18,0,189.75,189.75,69.6764,-60.6652,1015.4,1.58,-999.0,yes,yes,no,300234063265880,unknown,unknown,unknown,North
2016-07-07T19:00:28Z,1467918029,2016,19,0,189.792,189.792,69.6672,-60.6624,1015.8,1.79,-999.0,yes,yes,no,300234063265880,unknown,unknown,unknown,North
2016-07-07T19:59:31Z,1467921571,2016,20,0,189.833,189.833,69.656,-60.6676,1015.9,1.99,-999.0,yes,yes,no,300234063265880,unknown,unknown,unknown,North
2016-07-07T21:00:00Z,1467925200,2016,21,0,189.875,189.875,69.6458,-60.6808,1015.9,2.22,-999.0,yes,yes,no,300234063265880,unknown,unknown,unknown,North
2016-07-07T22:00:28Z,1467928829,2016,22,0,189.917,189.917,69.638,-60.7016,1015.8,2.2,-999.0,yes,yes,no,300234063265880,unknown,unknown,unknown,North
2016-07-07T22:59:31Z,1467932371,2016,23,0,189.958,189.958,69.6338,-60.7244,1015.7,2.2,-999.0,yes,yes,no,300234063265880,unknown,unknown,unknown,North
2016-07-08T00:00:00Z,1467936000,2016,0,0,190.0,190.0,69.634,-60.7452,1015.7,2.08,-999.0,yes,yes,no,300234063265880,unknown,unknown,unknown,North
2016-07-08T01:00:28Z,1467939629,2016,1,0,190.042,190.042,69.6398,-60.7648,1015.8,2.0,-999.0,yes,yes,no,300234063265880,unknown,unknown,unknown,North